Location: Prairie State College
(41.5244°N, 87.6382°W)
Time: 03:01:34
(UTC-05:00)

ARGOS Delta rocket - Visible Passes

Search period start: 25 August 2016 00:00
Search period end: 04 September 2016 00:00
Orbit: 635 x 839 km, 96.5° (Epoch: 24 August)

Date Brightness Start Highest point End Pass type
(mag) Time Alt. Az. Time Alt. Az. Time Alt. Az.
25 Aug 5.8 03:21:34 10° NE 03:24:55 21° E 03:26:50 16° SE visible
25 Aug 4.4 04:59:42 10° N 05:03:41 33° WNW 05:06:27 17° SW visible
26 Aug 3.6 04:14:23 10° NNE 04:18:49 82° E 04:20:54 31° S visible
27 Aug 5.4 03:29:57 10° NE 03:33:41 27° E 03:35:21 21° SE visible
27 Aug 4.7 05:08:37 10° NNW 05:12:17 26° WNW 05:14:57 15° WSW visible
28 Aug 3.5 04:23:05 10° N 04:27:29 77° WNW 04:29:24 33° SSW visible
29 Aug 5.0 03:38:24 10° NNE 03:42:26 34° E 03:43:51 27° SE visible
29 Aug 5.0 05:17:36 10° NNW 05:20:53 21° WNW 05:23:27 13° WSW visible
30 Aug 6.4 02:55:26 10° ENE 02:57:05 12° E 02:58:18 11° ESE visible
30 Aug 3.7 04:31:49 10° N 04:36:10 59° WNW 04:37:54 34° SW visible
31 Aug 4.5 03:46:55 10° NNE 03:51:09 45° E 03:52:21 36° SE visible
31 Aug 5.3 05:26:41 10° NNW 05:29:28 17° WNW 05:31:58 11° WSW visible
01 Sep 6.1 03:03:14 10° NE 03:05:54 16° E 03:06:48 15° ESE visible
01 Sep 4.0 04:40:36 10° N 04:44:48 45° WNW 04:46:24 31° SW visible
02 Sep 4.0 03:55:30 10° NNE 03:59:52 59° E 04:00:52 46° SSE visible
02 Sep 5.5 05:35:58 10° NW 05:38:03 13° WNW 05:40:09 10° W visible
03 Sep 5.8 03:11:23 10° NE 03:14:40 20° E 03:15:19 20° ESE visible
03 Sep 4.3 04:49:25 10° N 04:53:26 35° WNW 04:54:55 28° WSW visible
